Dewpoint
25 21 19 18 14 11 14 18 20 23 26 30 31 31 33 32 32 35 49 55 58 57 59 63 65 69 68 67 68 67 68 69 72 75 72 72 73 71 69 68 66 66 67 67
30 25 22 20 19 17 14 14 16 17 23 27 29 31 32 31 31 37 46 54 57 60 61 64 65 67 68 68 68 69 69 70 73 73 72 72 72 71 69 69 69 68 67 66
31 29 27 25 24 22 22 19 16 18 24 25 26 29 33 40 37 39 40 51 56 59 61 64 65 68 68 69 69 70 72 72 73 73 72 71 71 70 70 67 65 67 67 67
31 31 27 27 27 25 23 23 19 18 21 24 27 31 32 42 41 42 43 45 54 56 59 63 63 65 68 68 71 72 73 73 73 72 71 71 71 70 69 65 67 67 67 67
33 30 29 27 27 29 27 27 26 22 24 23 26 33 41 43 45 48 48 50 53 56 58 63 63 66 68 68 70 71 72 72 72 71 71 70 70 70 68 67 66 67 67 67
37 31 29 42 45 47 45 32 28 26 27 27 28 30 36 44 49 48 49 53 58 58 59 62 64 65 68 69 70 70 71 71 72 71 71 70 70 70 69 67 66 65 66 68
35 34 34 47 46 47 36 35 50 31 30 29 32 36 50 52 52 53 55 58 59 60 61 65 65 67 69 69 70 70 70 71 71 71 71 71 70 69 68 67 67 67 66 67
36 37 35 47 46 41 51 54 51 50 49 47 47 53 55 57 58 59 60 61 62 64 65 65 68 69 69 70 71 72 72 71 71 71 69 68 69 67 68 67 67 67 67 69
42 41 50 48 51 51 51 54 56 53 52 53 53 54 56 58 59 60 60 61 63 65 67 69 70 70 70 72 72 72 72 71 70 69 69 68 68 68 66 67 67 67 68 67
47 48 49 47 47 48 49 50 52 55 54 54 54 54 55 56 57 58 59 60 61 64 66 68 70 70 70 71 72 71 70 69 69 68 67 68 67 67 67 67 66 66 67 63
48 49 47 49 50 47 46 48 49 51 54 56 57 58 60 61 61 62 63 64 65 66 67 69 70 70 70 70 70 69 69 68 67 67 66 64 60 57 62 59 57 64 59 61
42 48 50 51 51 49 49 48 49 50 50 50 51 53 57 61 63 64 64 65 66 67 67 67 68 68 68 70 69 68 67 66 65 65 64 63 61 56 44 45 45 46 47 56
52 53 52 51 48 44 45 45 45 43 44 46 48 49 53 57 62 62 65 66 65 65 66 67 67 67 68 68 67 67 65 64 61 59 60 59 58 56 55 49 43 42 41 43
53 51 49 49 49 48 42 41 43 43 43 40 42 46 49 52 56 59 63 65 64 64 64 65 65 65 67 66 66 63 60 55 58 57 56 56 56 56 55 55 54 51 43 45
49 49 49 50 50 50 43 42 42 42 43 44 46 46 46 46 49 54 59 61 63 63 63 64 64 65 65 63 62 60 58 55 55 55 55 55 57 58 55 55 54 51 48 45
51 50 50 49 49 48 44 43 43 44 44 44 46 48 48 50 48 49 53 58 58 59 63 63 64 64 62 61 60 59 59 58 56 55 57 58 57 55 53 54 53 51 50 50
48 47 47 49 48 46 45 46 46 45 46 47 47 47 47 47 47 51 53 57 61 63 64 64 64 65 64 62 61 58 55 57 57 54 53 53 53 53 52 52 51 51 50 50
49 49 51 48 47 45 47 47 47 49 50 51 50 51 51 51 52 54 57 59 62 62 63 63 64 63 63 62 60 56 54 53 52 52 53 54 54 53 52 51 50 49 49 49
49 49 49 49 48 49 49 49 49 50 52 53 53 55 55 56 58 59 60 60 60 60 61 61 59 61 61 61 59 55 53 54 53 54 54 53 54 51 51 51 49 49 48 47
47 48 48 48 50 50 51 50 51 51 52 52 54 55 56 56 57 58 58 58 58 58 61 60 60 60 60 59 58 54 54 54 53 54 54 53 52 52 52 49 50 48 47 47
42 43 44 45 47 49 51 52 52 52 52 53 54 55 55 56 56 54 54 53 58 57 57 57 56 55 54 54 52 51 51 51 51 51 52 52 52 52 51 52 50 48 47 47
43 43 43 43 43 45 47 49 51 52 52 53 53 54 54 54 54 54 56 52 51 53 51 50 51 53 49 51 47 46 47 50 49 50 50 53 52 51 52 51 48 47 47 43
46 46 44 45 47 47 47 47 47 49 49 51 51 52 50 49 49 48 50 54 48 48 46 47 53 52 51 46 45 45 44 42 42 42 43 47 48 48 48 48 46 45 43 42
49 49 49 48 47 44 46 49 47 49 49 48 48 51 50 44 48 48 50 50 51 48 47 47 51 52 49 41 41 39 39 40 40 39 39 39 40 40 43 46 48 49 49 46
50 49 47 47 44 40 44 48 46 46 46 46 46 45 48 44 43 42 44 47 50 49 46 48 49 48 42 39 40 38 37 35 34 34 35 34 33 35 38 40 42 43 44 44
50 44 44 49 46 41 38 38 36 39 39 40 40 41 41 43 44 43 45 46 44 47 42 43 45 45 43 40 40 39 38 37 36 36 36 36 34 33 34 38 39 40 40 40
41 39 40 40 39 40 39 40 39 38 40 41 40 40 42 42 42 43 44 42 42 42 42 41 41 43 42 40 40 40 41 40 39 38 38 37 37 35 32 34 35 35 35 34
Lifted_Index
1 1 -0 -0 1 1 1 1 1 0 0 -0 0 2 2 2 1 0 -2 -3 -4 -4 -5 -5 -6 -7 -7 -6 -6 -6 -7 -7 -8 -7 -6 -6 -5 -4 -3 -2 -1 -1 -1 -1
1 0 -0 -0 0 0 1 1 2 2 1 1 1 2 3 2 1 0 -1 -3 -4 -4 -5 -6 -6 -7 -7 -7 -6 -6 -7 -7 -7 -7 -6 -6 -5 -4 -3 -3 -2 -1 -1 -1
0 -0 -0 -0 -0 -0 0 1 2 3 2 2 2 3 3 3 2 1 -1 -2 -4 -4 -5 -6 -6 -7 -7 -7 -7 -7 -7 -7 -7 -7 -6 -6 -5 -5 -5 -4 -3 -2 -2 -1
-1 -1 -1 -1 -0 0 0 1 2 3 3 3 3 3 3 2 1 0 -1 -2 -3 -4 -5 -6 -6 -6 -7 -7 -7 -7 -7 -7 -7 -7 -6 -6 -6 -5 -5 -5 -4 -4 -2 -2
-2 -2 -1 -1 -1 -0 0 1 2 2 3 3 3 3 3 2 1 0 -1 -2 -3 -4 -5 -5 -6 -6 -6 -6 -7 -7 -7 -7 -7 -7 -6 -6 -6 -5 -5 -5 -5 -4 -3 -2
-3 -2 -2 -2 -1 -1 -0 0 1 2 3 3 3 3 3 2 1 -0 -1 -2 -3 -4 -4 -5 -5 -6 -6 -7 -7 -7 -7 -7 -7 -7 -6 -6 -5 -5 -5 -5 -4 -4 -3 -3
-3 -3 -2 -2 -2 -2 -1 -1 -1 0 1 2 2 2 1 0 -0 -1 -2 -3 -4 -4 -4 -5 -5 -6 -7 -7 -7 -7 -7 -7 -7 -6 -6 -5 -5 -5 -5 -4 -4 -4 -3 -3
-3 -3 -2 -2 -2 -2 -2 -2 -2 -2 -1 -1 -1 -1 -1 -2 -2 -3 -3 -4 -4 -5 -5 -5 -6 -7 -7 -7 -7 -8 -7 -7 -6 -6 -5 -5 -5 -4 -4 -4 -4 -4 -4 -4
-3 -3 -2 -1 -1 -1 -2 -2 -3 -3 -3 -2 -2 -2 -3 -3 -3 -3 -3 -4 -4 -5 -5 -6 -6 -7 -7 -7 -7 -7 -7 -6 -5 -5 -5 -5 -4 -4 -4 -4 -4 -4 -4 -4
-2 -2 -1 -0 -0 -1 -1 -1 -1 -2 -3 -3 -3 -3 -3 -3 -3 -3 -3 -3 -4 -5 -5 -6 -6 -6 -7 -7 -6 -6 -6 -6 -5 -5 -4 -4 -4 -3 -3 -3 -3 -3 -3 -3
-1 -1 -0 0 0 1 1 1 0 -1 -1 -2 -2 -2 -3 -3 -4 -4 -4 -4 -5 -5 -6 -6 -6 -6 -6 -6 -6 -6 -5 -5 -4 -4 -4 -3 -3 -3 -2 -2 -2 -2 -2 -2
-1 -0 -0 0 1 1 1 1 1 1 1 0 0 -0 -2 -3 -4 -4 -4 -5 -5 -5 -6 -5 -5 -5 -5 -5 -5 -5 -5 -4 -4 -3 -3 -2 -2 -1 -1 -0 -0 -0 -1 -1
-1 -1 -0 0 1 2 2 2 2 2 2 2 2 2 1 -0 -2 -3 -4 -5 -5 -5 -5 -5 -5 -4 -4 -4 -4 -4 -3 -3 -2 -2 -2 -2 -1 -0 0 1 1 0 0 -0
-1 -0 -0 0 2 4 4 4 3 3 3 4 4 4 4 3 1 -1 -3 -4 -4 -4 -5 -5 -4 -4 -4 -3 -3 -2 -1 -1 -1 -1 -1 -1 -0 -0 0 0 1 1 1 0
1 1 1 2 4 5 6 5 5 5 5 5 5 5 5 5 4 2 -1 -2 -3 -4 -4 -4 -3 -3 -3 -2 -1 -1 -0 -0 0 -0 -0 -0 -0 -0 -0 -0 0 1 1 1
3 4 4 4 5 5 5 5 5 5 5 5 5 5 5 5 4 3 1 -1 -2 -3 -3 -3 -3 -2 -2 -1 -1 -1 -1 -0 0 0 -0 -0 -1 -1 -1 -1 -0 0 1 1
5 5 5 5 5 4 4 4 4 4 4 4 4 4 4 4 4 3 2 0 -2 -2 -3 -3 -3 -3 -2 -2 -2 -1 -1 -0 0 0 -0 -0 -1 -1 -1 -1 -1 -1 -0 0
4 4 4 4 3 3 3 3 3 2 2 2 2 2 2 2 2 2 1 -1 -2 -2 -2 -2 -2 -2 -2 -2 -2 -1 -1 -0 -0 -0 -0 -0 -1 -1 -1 -1 -1 -1 -0 0
2 2 2 2 2 2 2 2 2 2 1 1 1 1 1 1 1 0 -0 -1 -1 -1 -1 -1 -1 -1 -2 -1 -1 -1 -1 -1 -1 -1 -1 -1 -1 -1 -1 -1 -1 -0 0 1
2 2 1 1 2 2 1 1 1 1 1 1 1 1 1 1 0 0 -0 -0 -0 -0 -0 -0 -0 -1 -1 0 0 -0 -0 -0 -0 -1 -1 -0 -1 -1 -1 -1 -0 0 1 1
2 2 2 2 2 2 2 2 2 2 2 1 1 1 1 1 1 1 1 1 1 1 1 1 0 1 1 2 2 1 1 0 0 -0 -0 -1 -1 -1 -1 -0 0 1 1 2
2 3 3 3 3 3 3 2 2 2 2 2 1 1 1 1 1 1 1 1 2 2 2 2 2 3 3 3 3 3 2 2 1 1 0 -0 -0 -1 -1 -0 0 1 2 2
2 2 2 3 3 3 3 3 3 3 3 2 2 2 2 2 1 1 1 2 3 3 3 3 4 4 5 4 4 4 4 3 3 3 2 2 1 1 1 0 1 1 2 3
1 1 1 2 2 3 3 3 3 3 3 3 3 3 3 3 2 2 2 3 3 4 4 4 4 5 5 5 4 5 5 5 5 5 5 4 4 4 3 2 2 2 2 3
1 1 1 2 2 3 3 3 3 3 3 4 4 3 3 3 3 3 3 3 3 3 3 3 4 4 5 4 5 5 5 6 6 6 6 6 6 6 5 4 3 3 3 3
1 2 2 2 3 3 4 3 3 3 3 3 3 3 3 3 3 3 3 3 3 3 3 3 3 3 4 4 4 4 5 5 6 6 6 6 6 6 6 5 5 5 4 4
3 3 3 3 3 4 4 4 4 4 3 3 3 3 3 3 3 3 3 3 3 3 3 3 3 3 3 4 4 4 4 5 5 5 5 5 6 6 6 6 6 5 5 5